Find STARLINK-36731

NORAD ID: 70597 Constellation: starlink operational
LEOCIRCULAR

リアルタイム位置

3D地球を読み込み中...

STARLINK-36731について

説明を読み込み中...

次回通過

Passes for default location (London). Set your location on the main map for personalized predictions.

高度履歴

Loading altitude history...

軌道要素

1 70597C 26099P 26122.85951389 -.00128690 00000+0 -15538-3 0 1225
2 70597 53.1635 22.7188 0005650 287.6215 7.1588 16.07512879 14
Epoch: May 2, 2026 • Age: 31 hours